�N����,����,�~����,�C��,���x,�C��,����,���ϕ���,�ő�u�ԕ���,�ő厞����,���˗�,�I�_���x,�n�����x,�ő啗���N��,DTYPE
"16/06/25","00:10",0.0,21.7,96.0,994.1,341.8,0.6,1.2,356.4,0.00,21.1,22.5,"00:01:36",1
"16/06/25","00:20",0.0,21.7,96.0,993.7,320.8,0.5,0.9,6.7,0.00,21.1,22.2,"00:17:44",1
"16/06/25","00:30",0.4,21.7,96.0,993.9,310.9,0.5,1.0,325.3,0.00,21.1,22.6,"00:27:44",1
"16/06/25","00:40",0.2,21.8,96.0,993.7,272.9,0.3,0.9,312.8,0.00,21.2,22.4,"00:31:12",1
"16/06/25","00:50",1.0,21.8,96.1,993.7,232.7,0.5,0.9,209.3,0.00,21.2,22.3,"00:43:04",1
"16/06/25","01:00",2.4,21.8,96.1,993.4,242.3,0.2,0.8,210.0,0.00,21.2,22.3,"00:54:56",1
"16/06/25","01:10",1.8,21.8,96.2,993.2,318.2,0.5,1.1,205.6,0.00,21.2,22.4,"01:08:56",1
"16/06/25","01:20",1.4,21.8,96.2,993.2,162.9,0.5,1.0,155.3,0.00,21.2,22.3,"01:10:02",1
"16/06/25","01:30",1.2,21.8,96.2,993.2,179.5,1.1,1.9,202.5,0.00,21.2,22.5,"01:21:44",1
"16/06/25","01:40",0.4,21.8,96.3,994.1,170.1,0.7,1.8,194.3,0.00,21.2,22.4,"01:32:48",1
"16/06/25","01:50",0.0,21.9,96.6,993.7,340.3,1.2,2.9,347.9,0.00,21.4,22.5,"01:48:08",1
"16/06/25","02:00",0.0,22.2,96.5,993.4,279.8,0.8,2.0,229.4,0.00,21.7,22.4,"01:56:00",1
"16/06/25","02:10",0.0,23.6,96.5,993.4,242.4,1.5,3.7,232.9,0.00,23.1,22.4,"02:00:08",1
"16/06/25","02:20",0.0,24.1,95.4,993.7,269.0,0.8,2.5,199.1,0.00,23.4,22.5,"02:14:16",1
"16/06/25","02:30",0.0,24.4,94.6,993.7,245.3,1.0,4.0,232.4,0.00,23.5,22.4,"02:22:16",1
"16/06/25","02:40",0.0,24.4,94.2,993.7,291.8,0.7,1.7,225.1,0.00,23.4,22.6,"02:36:32",1
"16/06/25","02:50",0.0,24.8,92.3,993.7,238.3,1.3,3.1,230.8,0.00,23.5,22.3,"02:44:40",1
"16/06/25","03:00",0.0,25.0,90.0,994.1,246.1,1.3,3.5,226.3,0.00,23.3,22.5,"02:51:12",1
"16/06/25","03:10",0.0,25.1,89.1,994.1,250.2,1.1,3.7,228.6,0.00,23.2,22.6,"03:06:24",1
"16/06/25","03:20",0.0,25.0,89.2,994.4,285.0,0.7,1.9,213.8,0.00,23.1,22.3,"03:11:20",1
"16/06/25","03:30",0.0,24.8,89.5,994.6,281.1,0.7,1.6,233.8,0.00,23.0,22.4,"03:20:16",1
"16/06/25","03:40",0.0,24.9,89.4,994.6,288.6,0.7,2.1,222.8,0.00,23.1,22.6,"03:37:44",1
"16/06/25","03:50",0.0,25.1,88.7,994.6,269.0,1.2,5.9,222.1,0.00,23.1,22.6,"03:40:24",1
"16/06/25","04:00",0.0,25.0,88.5,994.6,275.9,1.1,5.5,231.9,0.00,23.0,22.6,"03:51:36",1
"16/06/25","04:10",0.0,24.9,88.8,994.8,313.5,0.6,1.9,336.5,0.00,23.0,22.7,"04:03:36",1
"16/06/25","04:20",0.0,24.7,89.5,994.8,289.1,0.5,1.3,238.1,0.00,22.9,22.6,"04:11:44",1
"16/06/25","04:30",0.0,24.5,90.0,994.8,306.6,0.6,1.3,336.9,0.00,22.8,22.5,"04:25:44",1
"16/06/25","04:40",0.0,24.6,90.1,995.1,289.5,0.8,2.2,239.8,0.00,22.9,22.7,"04:34:40",1
"16/06/25","04:50",0.0,24.7,89.5,995.1,270.2,0.7,2.1,235.0,0.00,22.9,22.7,"04:46:32",1
"16/06/25","05:00",0.0,24.8,88.6,995.3,269.8,1.1,2.8,237.4,0.00,22.8,22.7,"04:57:36",1
"16/06/25","05:10",0.0,25.2,86.9,995.6,265.1,1.1,3.5,209.7,0.00,22.9,22.7,"05:06:40",1
"16/06/25","05:20",0.0,25.2,86.3,995.3,259.6,1.0,4.0,241.3,0.00,22.8,22.7,"05:17:28",1
"16/06/25","05:30",0.0,25.2,85.9,995.6,273.0,1.2,3.5,236.5,0.00,22.7,22.6,"05:29:52",1
"16/06/25","05:40",0.0,25.3,85.8,995.6,288.4,0.7,1.2,273.9,0.00,22.8,22.7,"05:30:48",1
"16/06/25","05:50",0.0,25.2,86.3,995.8,287.4,0.8,2.8,184.1,0.00,22.8,22.7,"05:47:44",1
"16/06/25","06:00",0.0,25.1,86.2,995.8,291.3,0.7,3.9,226.3,0.00,22.7,22.7,"05:53:12",1
"16/06/25","06:10",0.0,25.0,86.7,995.8,316.2,0.8,2.2,333.5,0.00,22.7,22.8,"06:02:00",1
"16/06/25","06:20",0.0,24.9,87.9,996.0,320.6,0.7,1.8,352.0,0.04,22.8,22.7,"06:10:24",1
"16/06/25","06:30",0.0,25.0,88.0,996.3,323.1,0.6,1.9,333.9,0.03,22.9,22.6,"06:29:20",1
"16/06/25","06:40",0.0,25.0,87.2,996.0,322.3,0.6,1.3,273.3,0.02,22.8,22.7,"06:31:04",1
"16/06/25","06:50",0.0,25.3,88.0,996.5,51.7,0.6,1.7,225.5,0.04,23.2,22.6,"06:40:48",1
"16/06/25","07:00",0.0,25.1,88.5,996.0,168.1,0.7,1.8,149.2,0.05,23.1,22.9,"06:58:16",1
"16/06/25","07:10",0.0,24.9,89.1,996.5,123.9,0.6,1.9,117.4,0.03,23.0,22.8,"07:00:48",1
"16/06/25","07:20",0.0,24.9,89.2,996.7,64.8,0.7,1.8,65.4,0.05,23.0,22.9,"07:18:00",1
"16/06/25","07:30",0.0,25.2,89.1,997.0,30.9,0.5,1.3,97.4,0.06,23.3,23.2,"07:23:36",1
"16/06/25","07:40",0.0,25.3,89.1,997.2,80.6,0.5,1.4,98.1,0.07,23.4,23.1,"07:36:24",1
"16/06/25","07:50",0.0,25.3,88.9,997.0,134.6,0.3,1.1,138.6,0.06,23.4,23.1,"07:48:00",1
"16/06/25","08:00",0.0,25.4,88.8,997.0,62.4,0.3,0.9,93.5,0.06,23.5,23.2,"07:59:28",1
"16/06/25","08:10",0.0,25.5,88.6,996.5,139.2,0.6,1.6,137.9,0.11,23.5,23.3,"08:06:48",1
"16/06/25","08:20",0.0,25.9,86.8,996.7,151.5,0.8,2.6,134.1,0.17,23.6,23.2,"08:12:16",1
"16/06/25","08:30",0.0,26.0,87.2,996.7,176.2,1.1,2.4,125.7,0.15,23.7,23.4,"08:24:48",1
"16/06/25","08:40",0.0,26.5,84.6,997.0,176.0,1.3,2.6,199.5,0.23,23.7,23.5,"08:38:56",1
"16/06/25","08:50",0.0,26.8,83.9,996.5,183.0,1.5,2.7,200.7,0.21,23.9,23.6,"08:40:02",1
"16/06/25","09:00",0.0,26.6,82.6,996.5,168.4,1.3,2.6,135.3,0.15,23.4,23.6,"08:57:28",1
"16/06/25","09:10",0.0,26.3,84.3,996.5,190.2,1.6,3.6,206.8,0.09,23.5,23.6,"09:04:00",1
"16/06/25","09:20",0.0,26.6,82.6,996.3,171.8,1.7,3.9,205.5,0.21,23.4,23.9,"09:15:28",1
"16/06/25","09:30",0.0,26.4,82.5,996.7,180.7,2.3,4.0,182.4,0.18,23.2,23.9,"09:21:52",1
"16/06/25","09:40",0.0,26.2,82.6,996.5,186.0,1.7,2.9,195.3,0.05,23.0,23.8,"09:32:08",1
"16/06/25","09:50",0.0,26.2,82.5,996.3,204.8,1.5,2.8,234.0,0.08,23.0,23.9,"09:48:56",1
"16/06/25","10:00",0.0,26.4,79.5,996.7,256.6,1.2,4.0,228.4,0.14,22.6,24.0,"09:59:04",1
"16/06/25","10:10",0.0,26.3,79.5,996.7,278.2,0.5,1.2,237.7,0.12,22.5,24.1,"10:06:00",1
"16/06/25","10:20",0.0,26.7,77.8,996.7,270.7,0.8,4.0,223.2,0.22,22.5,24.0,"10:11:36",1
"16/06/25","10:30",0.0,26.7,75.7,996.3,261.6,0.7,2.2,188.4,0.20,22.1,24.2,"10:28:48",1
"16/06/25","10:40",0.0,26.8,75.9,996.0,266.1,0.8,2.5,226.6,0.19,22.2,24.2,"10:33:20",1
"16/06/25","10:50",0.0,26.7,76.5,996.3,245.0,1.3,3.1,227.8,0.18,22.3,24.5,"10:43:36",1
"16/06/25","11:00",0.0,26.9,72.9,995.8,266.2,0.5,1.9,189.8,0.18,21.7,24.6,"10:55:04",1
"16/06/25","11:10",0.0,26.7,71.6,995.8,225.5,1.6,4.2,225.1,0.17,21.2,24.6,"11:08:00",1
"16/06/25","11:20",0.0,26.4,72.1,996.5,253.3,1.0,4.9,225.8,0.14,21.0,24.5,"11:10:24",1
"16/06/25","11:30",0.0,26.4,72.2,996.5,265.4,1.0,2.7,204.5,0.15,21.0,24.6,"11:21:52",1
"16/06/25","11:40",0.0,26.3,70.5,996.5,265.7,1.0,3.6,279.7,0.19,20.5,24.4,"11:30:48",1
"16/06/25","11:50",0.0,26.0,73.1,996.5,258.8,1.7,8.7,227.0,0.13,20.8,24.3,"11:42:40",1
"16/06/25","12:00",0.0,25.8,70.3,997.0,260.0,1.7,4.5,220.9,0.11,20.0,24.5,"11:51:12",1
"16/06/25","12:10",0.0,25.6,68.9,996.7,268.7,1.3,3.7,227.4,0.10,19.5,24.5,"12:02:32",1
"16/06/25","12:20",0.0,25.5,71.0,996.7,296.5,1.0,2.2,220.3,0.12,19.9,24.5,"12:13:20",1
"16/06/25","12:30",0.2,25.5,71.0,996.7,275.2,1.1,2.2,346.5,0.12,19.9,24.4,"12:20:08",1
"16/06/25","12:40",0.0,25.5,71.3,996.0,279.7,1.0,2.5,340.4,0.11,20.0,24.5,"12:38:56",1
"16/06/25","12:50",0.0,25.5,70.1,996.3,296.2,1.1,3.4,347.6,0.17,19.7,24.5,"12:45:28",1
"16/06/25","13:00",0.0,25.7,68.9,996.3,284.8,1.2,3.4,230.3,0.21,19.6,24.4,"12:55:28",1
"16/06/25","13:10",0.0,25.7,68.1,996.5,293.6,1.1,4.9,229.8,0.22,19.4,24.2,"13:01:20",1
"16/06/25","13:20",0.0,25.5,68.7,997.0,258.0,1.7,5.5,239.9,0.09,19.4,24.5,"13:14:48",1
"16/06/25","13:30",0.0,25.3,70.2,997.0,274.7,1.1,3.2,253.2,0.10,19.5,24.3,"13:24:32",1
"16/06/25","13:40",0.0,25.2,71.9,996.5,273.2,1.0,2.9,229.3,0.13,19.8,24.2,"13:39:28",1
"16/06/25","13:50",0.0,25.3,70.8,996.7,262.3,1.0,2.8,222.6,0.13,19.7,24.4,"13:41:28",1
"16/06/25","14:00",0.0,24.9,72.7,997.0,290.0,0.7,2.0,278.4,0.10,19.7,24.4,"13:58:32",1
"16/06/25","14:10",0.0,24.9,75.1,997.0,267.4,0.8,2.8,229.2,0.09,20.2,24.4,"14:07:52",1
"16/06/25","14:20",0.0,24.5,76.7,996.7,226.3,1.5,3.5,232.2,0.08,20.2,24.2,"14:18:08",1
"16/06/25","14:30",0.0,24.0,77.7,997.4,260.2,1.5,3.7,232.4,0.07,19.9,24.2,"14:23:12",1
"16/06/25","14:40",0.2,23.8,80.5,997.7,256.0,1.0,2.2,223.5,0.06,20.3,24.4,"14:33:20",1
"16/06/25","14:50",0.0,23.5,79.0,997.9,280.6,1.3,3.6,227.3,0.05,19.7,24.2,"14:44:56",1
"16/06/25","15:00",0.0,22.9,78.6,997.9,261.3,2.1,5.7,253.4,0.05,19.0,24.2,"14:55:36",1
"16/06/25","15:10",0.0,22.6,80.0,998.4,261.4,1.7,4.1,226.9,0.06,19.0,24.3,"15:05:04",1
"16/06/25","15:20",0.0,22.5,78.2,998.2,272.0,1.3,3.7,275.0,0.07,18.6,24.1,"15:11:52",1
"16/06/25","15:30",0.0,22.6,77.0,998.4,280.8,1.2,4.2,231.4,0.05,18.4,24.2,"15:29:52",1
"16/06/25","15:40",0.0,22.6,76.6,998.6,275.3,1.3,3.5,234.3,0.05,18.3,24.0,"15:34:56",1
"16/06/25","15:50",0.0,22.6,76.6,998.9,268.2,1.5,5.4,230.9,0.04,18.3,24.1,"15:49:12",1
"16/06/25","16:00",0.0,22.6,77.3,998.6,252.1,1.6,4.8,227.0,0.04,18.5,23.8,"15:56:56",1
"16/06/25","16:10",0.2,22.4,79.7,998.6,250.2,0.7,1.3,210.1,0.03,18.8,23.4,"16:02:48",1
"16/06/25","16:20",0.0,22.2,81.1,999.1,256.9,1.0,2.5,242.3,0.03,18.8,23.8,"16:12:24",1
"16/06/25","16:30",0.0,22.0,82.0,998.6,247.3,1.0,1.9,237.4,0.02,18.8,23.7,"16:28:16",1
"16/06/25","16:40",0.2,22.1,82.8,998.6,230.0,1.2,2.6,241.9,0.03,19.1,23.6,"16:36:24",1
"16/06/25","16:50",0.0,21.9,83.4,998.6,262.1,1.2,2.6,259.4,0.02,19.0,23.7,"16:45:12",1
"16/06/25","17:00",0.0,21.7,84.1,998.4,300.2,1.0,2.9,224.9,0.02,18.9,23.5,"16:54:48",1
"16/06/25","17:10",0.2,21.7,86.5,998.4,320.6,0.7,1.6,340.4,0.02,19.4,23.6,"17:00:48",1
"16/06/25","17:20",0.0,21.5,87.9,998.9,312.6,1.2,3.1,213.0,0.01,19.5,23.4,"17:16:16",1
"16/06/25","17:30",0.2,21.4,88.2,998.9,20.5,0.3,1.3,343.7,0.01,19.4,23.2,"17:20:36",1
"16/06/25","17:40",0.0,21.4,88.6,999.6,22.4,0.8,2.0,52.4,0.01,19.5,23.4,"17:36:52",1
"16/06/25","17:50",0.0,21.3,89.3,999.1,350.1,0.5,1.2,96.3,0.00,19.5,23.4,"17:46:36",1
"16/06/25","18:00",0.0,21.1,89.9,999.8,354.1,1.0,2.5,340.9,0.00,19.4,23.5,"17:56:48",1
"16/06/25","18:10",0.0,20.9,90.1,999.8,282.9,1.0,2.8,339.1,0.00,19.3,23.2,"18:01:04",1
"16/06/25","18:20",0.2,20.9,90.4,1000.0,325.0,0.8,3.1,328.4,0.00,19.3,23.2,"18:12:08",1
"16/06/25","18:30",0.2,20.8,90.6,999.8,296.9,0.6,1.2,310.9,0.00,19.2,23.2,"18:25:04",1
"16/06/25","18:40",0.2,20.6,90.6,1000.0,297.8,0.6,1.1,250.5,0.00,19.0,23.2,"18:31:36",1
"16/06/25","18:50",0.2,20.3,90.6,1000.5,289.1,0.6,1.8,329.9,0.00,18.8,23.1,"18:45:44",1
"16/06/25","19:00",0.0,20.2,90.5,1000.8,300.1,0.7,1.4,325.4,0.00,18.6,23.1,"18:52:16",1
"16/06/25","19:10",0.2,19.9,89.6,1000.5,297.7,1.0,3.1,324.5,0.00,18.2,23.0,"19:01:52",1
"16/06/25","19:20",0.0,19.7,89.3,1000.5,303.7,1.0,1.8,319.0,0.00,17.9,22.8,"19:16:08",1
"16/06/25","19:30",0.2,19.6,89.5,1000.3,304.9,1.0,2.0,338.9,0.00,17.9,22.8,"19:24:56",1
"16/06/25","19:40",0.0,19.5,89.3,999.6,310.3,1.1,2.2,342.8,0.00,17.7,22.8,"19:36:08",1
"16/06/25","19:50",0.2,19.3,88.1,1000.3,287.1,1.0,2.5,238.9,0.00,17.3,22.5,"19:49:52",1
"16/06/25","20:00",0.0,19.5,85.6,1000.5,257.3,1.0,3.5,213.9,0.00,17.1,22.8,"19:52:40",1
"16/06/25","20:10",0.0,19.4,84.8,1000.5,311.4,1.3,2.4,356.4,0.00,16.8,22.5,"20:06:32",1
"16/06/25","20:20",0.2,19.2,84.2,1001.0,310.5,1.3,4.0,240.2,0.00,16.5,22.6,"20:10:32",1
"16/06/25","20:30",0.0,19.1,86.0,1001.5,316.3,1.2,2.6,337.8,0.00,16.7,22.6,"20:29:04",1
"16/06/25","20:40",0.0,19.0,87.9,1001.9,313.6,0.7,1.2,319.0,0.00,17.0,22.5,"20:36:48",1
"16/06/25","20:50",0.0,18.8,89.0,1001.7,349.0,0.8,1.4,322.7,0.00,17.0,22.4,"20:40:48",1
"16/06/25","21:00",0.0,18.6,89.3,1001.7,284.8,1.1,1.8,342.1,0.00,16.8,22.3,"20:59:44",1
"16/06/25","21:10",0.0,18.5,90.7,1002.2,308.7,1.2,2.1,328.9,0.00,17.0,22.2,"21:00:40",1
"16/06/25","21:20",0.0,18.5,91.7,1002.2,287.3,1.1,2.0,309.2,0.00,17.2,22.3,"21:19:52",1
"16/06/25","21:30",0.0,18.4,92.4,1001.9,303.8,1.3,2.1,318.7,0.00,17.2,22.2,"21:20:08",1
"16/06/25","21:40",0.0,18.4,92.9,1002.2,301.1,1.2,1.7,310.7,0.00,17.3,22.2,"21:38:40",1
"16/06/25","21:50",0.0,18.5,93.4,1002.2,297.5,0.7,1.4,306.6,0.00,17.5,22.2,"21:40:08",1
"16/06/25","22:00",0.0,18.5,93.7,1001.9,280.9,0.8,1.8,327.7,0.00,17.5,22.2,"21:59:52",1
"16/06/25","22:10",0.0,18.4,93.6,1001.9,333.6,1.5,2.2,326.9,0.00,17.4,22.0,"22:02:56",1
"16/06/25","22:20",0.0,18.4,93.8,1002.2,301.5,1.5,2.1,320.6,0.00,17.4,22.0,"22:15:04",1
"16/06/25","22:30",0.0,18.4,93.9,1001.9,300.2,1.3,1.6,318.6,0.00,17.4,22.0,"22:20:08",1
"16/06/25","22:40",0.0,18.3,94.1,1002.2,305.7,1.5,2.2,321.4,0.00,17.4,21.8,"22:39:52",1
"16/06/25","22:50",0.0,18.1,94.2,1002.2,314.6,1.6,2.7,327.1,0.00,17.2,22.0,"22:41:36",1
"16/06/25","23:00",0.0,18.2,94.4,1002.9,267.4,1.3,2.0,275.4,0.00,17.3,21.8,"22:53:52",1
"16/06/25","23:10",0.0,18.2,94.5,1002.2,281.1,1.2,2.1,251.4,0.00,17.3,21.9,"23:04:56",1
"16/06/25","23:20",0.0,18.3,94.6,1002.2,309.2,1.1,2.0,322.8,0.00,17.5,21.9,"23:13:20",1
"16/06/25","23:30",0.0,18.4,94.6,1002.4,326.3,1.1,1.9,322.2,0.00,17.6,21.7,"23:29:52",1
"16/06/25","23:40",0.0,18.5,94.6,1002.4,329.9,1.1,2.2,329.1,0.00,17.7,21.8,"23:32:08",1
"16/06/25","23:50",0.0,18.5,94.4,1002.4,307.0,0.6,1.2,326.0,0.00,17.6,21.7,"23:44:40",1
"16/06/25","24:00",0.0,18.5,94.1,1002.9,314.2,1.3,2.0,315.8,0.00,17.6,21.7,"23:57:44",1
